Weather in Storozhevaya

Russia / Karachay-Cherkess Republic     43°53′12″N   41°27′10″E
temp.,
°C
wind,
m/s
gust,
m/s
humid.,
%
clouds,
%
prec.,
mm/h
press.,
hPa
HPBL,
m
23 september, thu
thu2300:00+7nne2299100 0.1 1014235
03:00+7ene1298100 0.1 1014430
06:00+7ene1198100 0.0 1013336
09:00+8ne1095100 0.1 1012444
12:00+10nne2291100 0.1 1010474
15:00+9n2397100 0.4 1010357
18:00+8nne1299100 1.3 1011162
21:00+8nne12100100 2.1 1011145
24 september, fri
fri2400:00+8nnw12100100 0.1 1010189
03:00+8wnw1199100 1.3 1011131
06:00+8nw1398100 3.4 1012322
09:00+8nnw0196100 6.9 1013149
12:00+8n1193100 1.0 1014264
15:00+10n218494 1.1 1013572
18:00+8n119299 0.3 101433
21:00+8ene119277 0.4 101528
25 september, sat
sat2500:00+6sse229478 0.0 101532
03:00+5s2286100 0.1 101453
06:00+5ssw2279100 0.0 101332
09:00+11sw3563100 0.0 1010360
12:00+8nnw5686100 0.1 1014598
15:00+11wsw2371100 0.3 1013746
18:00+8wsw2296100 2.1 101654
21:00+7nw1196100 3.3 101839
26 september, sun
sun2600:00+7wnw119792 0.1 1020150
03:00+7n009795 0.2 102095
06:00+7wsw118853 0.0 102117
09:00+9ssw12759 0.1 1020490
12:00+13nw135875 0.0 1019771
15:00+16nnw45525 0.0 10171176
18:00+9nw11870 0.0 101910
21:00+7ssw34810 0.0 101956
27 september, mon
mon2700:00+6ssw34800 0.0 101854
03:00+6ssw34790 0.0 101854
06:00+5w11824 0.0 101810
09:00+11nw126245 0.0 1017485
12:00+10n348787 0.1 1017443
15:00+8n1495100 0.1 1019463
18:00+8ese0196100 0.3 101988
21:00+8e1195100 0.4 101959